Wind_Speed
10 13 14 11 7 5 4 1 3 5 7 9 11 11 9 11 15 19 18 18 18 20 22 22 24 26 28 30 33 34 35 38
8 9 9 10 11 9 7 8 9 11 11 12 13 11 11 12 15 16 14 16 17 18 20 24 27 30 32 31 33 35 38 39
13 12 13 9 10 12 12 11 12 14 14 15 16 14 13 15 15 15 16 17 17 19 24 28 30 32 31 34 34 36 36 37
17 18 15 14 13 14 15 15 14 17 18 19 16 15 14 13 15 16 16 18 21 25 26 25 24 27 29 33 34 36 36 36
18 17 18 17 19 21 22 21 18 19 22 20 16 14 13 15 16 17 19 22 23 24 26 29 31 29 31 31 33 35 36 37
23 24 21 19 19 24 25 24 21 23 24 18 17 16 15 17 18 18 22 24 25 27 30 29 35 39 35 34 36 37 37 38
26 24 24 22 21 28 20 26 28 26 20 17 19 20 17 18 19 21 24 26 30 30 35 38 46 41 33 37 38 39 39 40
29 27 27 25 26 28 22 25 25 22 19 18 18 18 19 20 22 25 29 31 33 34 36 42 48 42 36 35 39 40 41 41
24 26 26 26 26 25 30 28 22 21 20 20 19 20 23 26 29 30 34 37 36 30 39 42 41 43 36 36 40 42 42 40
23 27 28 24 29 32 31 25 23 23 23 21 22 24 28 31 35 38 36 41 32 46 46 44 48 44 33 37 41 41 39 40
23 26 26 29 32 28 24 23 23 24 23 24 26 30 33 32 35 37 41 50 39 46 42 52 40 39 40 38 39 38 38 39
15 16 17 19 20 21 21 19 19 21 24 26 30 36 35 34 42 49 40 54 41 41 50 37 36 37 39 33 34 37 38 40
9 9 11 13 15 17 20 19 21 21 22 25 33 31 40 44 39 56 43 50 56 51 44 35 38 38 27 32 34 38 39 39
14 16 17 18 19 15 21 26 29 31 25 31 31 35 38 39 43 44 51 50 53 45 39 41 38 31 32 33 37 38 38 38
17 19 21 21 20 24 26 31 29 32 35 32 37 42 37 40 42 50 50 53 47 43 41 39 30 25 31 36 39 39 39 38
17 19 21 23 26 27 28 32 33 32 31 37 38 40 38 44 53 49 53 48 46 39 27 21 24 31 36 38 38 37 36 36
19 19 21 24 26 28 28 30 32 30 33 37 37 41 45 42 51 52 54 45 32 20 21 23 28 34 36 37 36 35 34 34
19 21 21 20 19 23 26 32 35 37 38 39 42 45 47 52 56 48 33 33 21 22 23 28 32 33 35 35 35 35 34 33
15 17 17 19 23 26 30 32 34 35 37 42 44 47 50 53 44 39 28 21 20 22 27 30 32 33 35 36 35 34 34 33
Wind_Direction
118 120 133 150 152 161 171 198 290 301 304 308 304 299 279 283 282 282 279 283 281 279 284 291 292 290 290 295 298 298 297 298
164 157 164 165 169 184 195 225 251 263 276 284 294 285 275 281 276 266 270 276 273 280 285 287 286 289 294 296 297 292 293 298
228 214 209 203 202 212 217 237 257 269 279 284 284 265 265 265 254 256 273 277 277 281 284 284 284 289 290 295 296 296 299 301
251 250 253 249 252 259 252 253 258 267 273 282 274 260 273 259 253 270 274 277 280 279 283 285 289 296 297 298 298 299 299 299
262 271 281 287 275 270 268 260 258 264 276 281 264 257 265 264 278 278 274 270 274 281 295 295 296 301 298 293 294 296 296 299
267 279 291 288 275 284 281 259 264 272 277 266 250 265 282 282 285 281 276 279 284 292 294 302 304 302 299 299 301 298 299 301
257 270 265 268 269 285 268 259 263 268 265 248 253 277 288 285 286 282 285 288 303 298 311 301 310 296 297 304 302 301 301 300
254 257 252 252 264 281 290 290 276 264 254 253 272 284 283 282 286 286 286 289 301 281 299 309 308 293 296 300 297 299 300 302
248 251 249 258 265 270 277 285 264 252 245 264 277 284 289 287 284 282 282 275 268 280 288 291 288 297 306 298 295 297 299 303
253 254 261 261 269 277 283 271 258 247 253 268 275 284 287 287 280 267 272 269 286 281 297 291 296 305 293 291 294 295 300 304
252 261 261 268 272 273 267 263 255 255 262 266 273 277 284 284 284 293 280 299 300 288 289 286 297 290 292 293 295 302 306 308
248 255 262 262 260 257 261 265 267 270 271 273 275 269 281 295 279 282 286 280 297 284 294 292 292 292 301 302 303 306 307 304
270 283 292 294 293 277 280 282 282 285 284 284 277 293 281 289 292 287 272 273 299 301 292 294 293 304 309 305 304 305 305 305
289 287 291 299 307 281 266 268 265 262 275 285 284 296 294 280 289 297 301 296 296 301 295 295 305 304 305 308 307 306 306 306
275 284 286 285 277 276 274 256 277 260 287 282 296 299 299 297 297 290 300 302 294 289 297 305 306 313 310 308 308 307 307 306
263 272 276 272 271 273 267 269 276 291 284 296 296 298 297 298 288 306 301 291 288 305 312 322 326 314 308 305 306 305 304 305
257 263 267 266 268 272 277 277 285 292 294 298 298 296 292 297 299 294 289 297 305 310 327 322 310 303 304 306 306 304 304 305
255 259 265 258 265 272 275 285 297 294 294 295 296 293 295 293 294 285 305 307 308 320 315 306 306 306 307 307 305 303 305 306
285 281 282 279 280 284 290 292 289 286 285 288 289 289 289 288 284 305 305 306 317 310 305 305 307 309 309 309 306 303 304 304
Height
3140 3142 3144 3147 3148 3150 3153 3154 3156 3157 3159 3160 3162 3163 3162 3161 3161 3160 3160 3159 3158 3158 3156 3155 3153 3152 3151 3149 3146 3143 3139 3136
3140 3142 3145 3147 3149 3152 3154 3156 3157 3158 3159 3160 3160 3160 3159 3159 3159 3157 3157 3156 3156 3155 3153 3151 3150 3148 3145 3143 3140 3138 3133 3129
3138 3142 3144 3147 3149 3151 3152 3153 3155 3155 3155 3156 3156 3156 3156 3155 3154 3154 3152 3152 3152 3152 3150 3148 3145 3142 3140 3138 3134 3129 3125 3121
3136 3138 3141 3144 3146 3148 3150 3150 3150 3151 3151 3151 3151 3151 3151 3150 3151 3150 3149 3148 3146 3146 3145 3143 3141 3138 3134 3130 3125 3120 3116 3114
3133 3134 3137 3141 3144 3145 3146 3147 3147 3147 3146 3146 3146 3148 3148 3147 3147 3146 3145 3144 3144 3142 3139 3137 3134 3131 3128 3123 3118 3114 3109 3104
3130 3132 3134 3134 3137 3138 3139 3140 3140 3140 3141 3142 3143 3144 3144 3143 3142 3141 3141 3139 3138 3136 3133 3128 3125 3122 3119 3115 3111 3107 3101 3096
3128 3129 3131 3133 3135 3133 3134 3133 3135 3136 3137 3139 3140 3140 3139 3138 3137 3138 3136 3133 3129 3125 3122 3119 3117 3113 3109 3104 3099 3096 3092 3087
3125 3126 3128 3130 3131 3131 3131 3131 3130 3131 3133 3136 3136 3134 3134 3134 3132 3130 3127 3124 3120 3116 3115 3111 3105 3101 3097 3093 3090 3086 3082 3078
3123 3125 3127 3129 3127 3128 3128 3129 3127 3128 3130 3130 3129 3127 3125 3125 3123 3121 3118 3115 3109 3107 3104 3101 3097 3093 3089 3086 3082 3078 3073 3068
3120 3122 3124 3125 3124 3123 3123 3124 3124 3124 3125 3124 3123 3123 3121 3120 3117 3112 3107 3105 3101 3100 3099 3095 3091 3085 3083 3080 3075 3070 3065 3059
3117 3119 3120 3120 3120 3118 3118 3119 3119 3120 3120 3120 3120 3119 3118 3116 3115 3112 3109 3103 3100 3097 3092 3087 3082 3079 3076 3071 3066 3061 3056 3050
3113 3115 3116 3116 3115 3114 3114 3113 3112 3113 3114 3116 3116 3113 3111 3109 3104 3103 3100 3092 3091 3088 3085 3077 3073 3069 3066 3061 3057 3051 3046 3040
3109 3110 3110 3110 3110 3109 3107 3107 3107 3106 3107 3107 3106 3106 3103 3102 3100 3094 3086 3085 3083 3078 3072 3067 3064 3061 3057 3053 3048 3042 3037 3031
3104 3103 3103 3102 3102 3103 3103 3102 3103 3101 3101 3101 3100 3098 3097 3094 3090 3088 3083 3078 3072 3067 3062 3058 3056 3051 3048 3044 3039 3034 3029 3024
3100 3099 3098 3098 3097 3096 3097 3097 3097 3096 3095 3093 3092 3091 3089 3085 3082 3077 3074 3069 3062 3056 3055 3052 3047 3044 3040 3035 3030 3025 3020 3015
3096 3095 3094 3094 3093 3092 3093 3091 3090 3089 3089 3088 3086 3084 3081 3077 3071 3069 3064 3058 3053 3052 3048 3044 3041 3038 3032 3027 3022 3017 3012 3007
3092 3090 3091 3091 3090 3089 3088 3086 3085 3084 3083 3081 3079 3076 3071 3067 3064 3059 3053 3050 3047 3043 3041 3038 3034 3029 3024 3019 3014 3009 3005 3000
3088 3087 3087 3086 3085 3085 3084 3082 3080 3078 3076 3074 3071 3067 3064 3060 3054 3048 3044 3042 3039 3036 3033 3030 3026 3022 3016 3011 3006 3001 2996 2991
3082 3081 3081 3080 3080 3079 3077 3074 3073 3071 3069 3066 3064 3059 3053 3048 3043 3040 3037 3036 3032 3029 3026 3022 3018 3013 3007 3002 2997 2993 2988 2984